Flag for Germany Weather past 2 weeks in Niederkassel, North Rhine-Westphalia, Germany

Now
52 °F

Overcast.


Feels Like: 49 °F
Forecast: 49 / 62 °F
Wind: 7 mph from Southwest

Location: Bonn-Hangelar

Current Time: May 29, 2015 at 11:07:02 AM

Latest Report: May 29, 2015 at 10:00 AM


Visibility: 22 mi

Pressure: 29.89 "Hg

Humidity: 73%

Dew point: 43 °F

Location of NiederkasselLocation

Historic Weather in Niederkassel — Graph

°F

Niederkassel temperature yesterday

Maximum temperature yesterday: 60 °F (at 6:00 PM)
Minimum temperature yesterday: 52 °F (at 11:00 PM)
Average temperature yesterday: 56 °F

Past Weeks' High & Low Weather Summary

 TemperatureHumidityPressure
High66 °F (May 23, 3:00 PM)100% (May 15, 6:00 AM)30.37 "Hg (May 15, 6:00 AM)
Low39 °F (May 21, 5:00 AM)44% (May 22, 4:00 PM)29.67 "Hg (May 18, 8:00 PM)
Average53 °F75%30.08 "Hg
* Reported May 14 10:00 AM — May 29 10:00 AM, Niederkassel, Weather by CustomWeather, © 2015

Note: Actual official high and low records may vary slightly from our data, if they occured in-between our weather recording intervals... More about our weather records

Advertising

Niederkassel weather history for previous 24 hours

 ConditionsComfort  
Time TempWeatherWind HumidityBarometerVisibility
10:00 AM
Fri, May 29
52 °FOvercast.7 mph73%29.89 "Hg22 mi
9:00 AM51 °FOvercast.5 mph77%29.90 "Hg22 mi
8:00 AM48 °FOvercast.5 mph82%29.91 "Hg22 mi
7:00 AM46 °FOvercast.5 mph86%29.92 "Hg22 mi
6:00 AM45 °FOvercast.5 mph87%29.93 "Hg22 mi
5:00 AM46 °FOvercast.3 mph87%29.94 "Hg16 mi
4:00 AM46 °FOvercast.5 mph86%29.95 "Hg17 mi
3:00 AM46 °FOvercast.3 mph86%29.96 "Hg17 mi
11:00 PM
Thu, May 28
52 °FOvercast.1 mph83%29.98 "Hg13 mi
10:00 PM53 °FCool.1 mph82%29.98 "Hg11 mi
9:00 PM55 °FOvercast.2 mph79%29.96 "Hg14 mi
8:00 PM56 °FOvercast.5 mph75%29.95 "Hg16 mi
7:00 PM59 °FOvercast.9 mph59%29.94 "Hg13 mi
6:00 PM60 °FOvercast.9 mph63%29.94 "Hg6 mi
5:00 PM60 °FPartly sunny.10 mph68%29.94 "Hg25 mi
4:00 PM58 °FOvercast.8 mph71%29.96 "Hg25 mi
3:00 PM58 °FOvercast.8 mph73%29.96 "Hg25 mi
2:00 PM58 °FOvercast.9 mph75%29.96 "Hg25 mi
1:00 PM58 °FOvercast.9 mph65%29.97 "Hg25 mi
12:00 PM58 °FOvercast.8 mph63%29.96 "Hg25 mi
11:00 AM58 °FPartly sunny.7 mph70%29.96 "Hg19 mi
Weather by CustomWeather, © 2015

See weather overviewHow to use our weather pages